Weather History for Bari, Italy

Change the Weather History Date:

Thursday, November 1, 2012

  Actual Average Record
Temperature  
Mean Temperature 66 °F -  
Max Temperature 73 °F 63 °F 80 °F (2008)
Min Temperature 57 °F 48 °F 41 °F (2006)
Cooling Degree Days 1    
Growing Degree Days 16 (Base 50)    
Moisture  
Dew Point 51 °F    
Average Humidity 61    
Maximum Humidity 83    
Minimum Humidity 41    
Precipitation  
Precipitation 0.00 in 0.07 in - ()
Sea Level Pressure  
Sea Level Pressure 29.55 in    
Wind  
Wind Speed 8 mph ()    
Max Wind Speed 23 mph    
Max Gust Speed 39 mph    
Visibility 6.2 miles    
Events      
Averages and records for this station are not official NWS values.
T = Trace of Precipitation, MM = Missing Value Source: Averaged Metar Reports

Daily Weather History Graph

Daily Weather History Graph

Search for Another Location

Airport:

Trip Planner

Search our weather history database for the weather conditions in past years. The results will help you decide how hot, cold, wet, or windy it might be!

Date:

Astronomy

Nov. 01, 2012 Rise Set
Actual Time 6:24 AM CET 4:48 PM CET
Civil Twilight 5:55 AM CET 5:16 PM CET
Nautical Twilight 5:23 AM CET 5:49 PM CET
Astronomical Twilight 4:50 AM CET 6:21 PM CET
Moon 6:30 PM CET (11/1) 8:43 AM CET (11/1)
Length of Visible Light 11h 21m
Length of Day
10h 23m
Waning Gibbous, 94% of the Moon is Illuminated
Nov 1
Waning Gibbous
Nov 7
Last Quarter
Nov 13
New
Nov 20
First Quarter
Nov 28
Full

Hourly Weather History & Observations

Time (CET) Temp. Dew Point Humidity Pressure Visibility Wind Dir Wind Speed Gust Speed Precip Events Conditions
12:20 AM 64.4 °F 59.0 °F 83% 29.47 in 6.2 mi South 6.9 mph - N/A   Scattered Clouds
12:50 AM 64.4 °F 57.2 °F 77% 29.50 in 6.2 mi South 5.8 mph - N/A   Scattered Clouds
1:20 AM 64.4 °F 59.0 °F 83% 29.47 in 6.2 mi South 6.9 mph - N/A   Scattered Clouds
1:50 AM 64.4 °F 57.2 °F 77% 29.50 in 6.2 mi South 5.8 mph - N/A   Scattered Clouds
2:20 AM 64.4 °F 59.0 °F 83% 29.47 in 6.2 mi South 6.9 mph - N/A   Scattered Clouds
2:50 AM 64.4 °F 57.2 °F 77% 29.50 in 6.2 mi South 5.8 mph - N/A   Scattered Clouds
3:20 AM 64.4 °F 59.0 °F 83% 29.47 in 6.2 mi South 6.9 mph - N/A   Scattered Clouds
3:50 AM 64.4 °F 57.2 °F 77% 29.50 in 6.2 mi South 5.8 mph - N/A   Scattered Clouds
4:20 AM 64.4 °F 59.0 °F 83% 29.47 in 6.2 mi South 6.9 mph - N/A   Scattered Clouds
4:50 AM 64.4 °F 57.2 °F 77% 29.50 in 6.2 mi South 5.8 mph - N/A   Scattered Clouds
5:20 AM 64.4 °F 59.0 °F 83% 29.47 in 6.2 mi South 6.9 mph - N/A   Scattered Clouds
5:50 AM 64.4 °F 57.2 °F 77% 29.50 in 6.2 mi South 5.8 mph - N/A   Scattered Clouds
6:20 AM 60.8 °F 55.4 °F 82% 29.44 in 6.2 mi SSW 5.8 mph - N/A   Partly Cloudy
6:50 AM 62.6 °F 53.6 °F 72% 29.44 in 6.2 mi SSW 4.6 mph - N/A   Partly Cloudy
7:20 AM 60.8 °F 53.6 °F 77% 29.44 in 6.2 mi SSW 6.9 mph - N/A   Partly Cloudy
7:50 AM 64.4 °F 51.8 °F 64% 29.44 in 6.2 mi SSE 5.8 mph - N/A   Partly Cloudy
8:20 AM 64.4 °F 53.6 °F 68% 29.44 in 6.2 mi South 8.1 mph - N/A   Partly Cloudy
8:50 AM 68.0 °F 51.8 °F 56% 29.44 in 6.2 mi SSW 11.5 mph - N/A   Partly Cloudy
9:20 AM 69.8 °F 51.8 °F 53% 29.47 in 6.2 mi South 6.9 mph - N/A   Partly Cloudy
9:50 AM 71.6 °F 50.0 °F 46% 29.50 in - SSW 12.7 mph - N/A   Clear
10:20 AM 71.6 °F 51.8 °F 50% 29.47 in - SW 11.5 mph - N/A   Clear
10:50 AM 71.6 °F 51.8 °F 50% 29.50 in 6.2 mi SW 13.8 mph - N/A   Partly Cloudy
11:20 AM 73.4 °F 53.6 °F 50% 29.50 in 6.2 mi SW 12.7 mph - N/A   Scattered Clouds
11:50 AM 71.6 °F 51.8 °F 50% 29.50 in 6.2 mi WSW 12.7 mph - N/A   Scattered Clouds
12:20 PM 71.6 °F 53.6 °F 53% 29.50 in 6.2 mi WSW 17.3 mph - N/A   Scattered Clouds
12:50 PM 71.6 °F 50.0 °F 46% 29.50 in 6.2 mi WSW 17.3 mph - N/A   Scattered Clouds
1:20 PM 73.4 °F 48.2 °F 41% 29.53 in 6.2 mi West 23.0 mph 34.5 mph N/A   Scattered Clouds
1:50 PM 71.6 °F 50.0 °F 46% 29.53 in 6.2 mi West 21.9 mph - N/A   Scattered Clouds
2:20 PM 71.6 °F 46.4 °F 41% 29.53 in 6.2 mi West 20.7 mph 39.1 mph N/A   Partly Cloudy
2:50 PM 71.6 °F 46.4 °F 41% 29.56 in 6.2 mi WSW 20.7 mph - N/A   Partly Cloudy
3:20 PM 69.8 °F 46.4 °F 43% 29.59 in 6.2 mi WSW 17.3 mph - N/A   Partly Cloudy
3:50 PM 68.0 °F 46.4 °F 46% 29.56 in 6.2 mi WSW 18.4 mph - N/A   Partly Cloudy
4:20 PM 68.0 °F 46.4 °F 46% 29.59 in 6.2 mi WSW 15.0 mph 26.5 mph N/A   Partly Cloudy
4:50 PM 66.2 °F 48.2 °F 52% 29.59 in 6.2 mi WSW 12.7 mph - N/A   Partly Cloudy
5:20 PM 66.2 °F 48.2 °F 52% 29.62 in 6.2 mi WSW 11.5 mph - N/A   Partly Cloudy
5:50 PM 64.4 °F 48.2 °F 56% 29.62 in 6.2 mi WSW 10.4 mph - N/A   Partly Cloudy
6:20 PM 64.4 °F 46.4 °F 52% 29.62 in 6.2 mi WSW 12.7 mph - N/A   Partly Cloudy
6:50 PM 62.6 °F 48.2 °F 59% 29.65 in 6.2 mi WSW 9.2 mph - N/A   Partly Cloudy
7:20 PM 62.6 °F 48.2 °F 59% 29.68 in - SSW 8.1 mph - N/A   Clear
7:50 PM 62.6 °F 46.4 °F 55% 29.68 in 6.2 mi SW 9.2 mph - N/A   Partly Cloudy
8:20 PM 62.6 °F 46.4 °F 55% 29.68 in - SW 9.2 mph - N/A   Clear
8:50 PM 60.8 °F 46.4 °F 59% 29.71 in 6.2 mi SSW 6.9 mph - N/A   Partly Cloudy
9:20 PM 60.8 °F 46.4 °F 59% 29.71 in - SSW 6.9 mph - N/A   Clear
9:50 PM 60.8 °F 46.4 °F 59% 29.71 in - SSW 9.2 mph - N/A   Clear
10:20 PM 59.0 °F 46.4 °F 63% 29.71 in - SSW 9.2 mph - N/A   Clear
10:50 PM 60.8 °F 46.4 °F 59% 29.71 in - SW 9.2 mph - N/A   Clear
11:20 PM 59.0 °F 46.4 °F 63% 29.71 in - SW 6.9 mph - N/A   Clear
11:50 PM 57.2 °F 46.4 °F 67% 29.71 in - SW 6.9 mph - N/A   Clear